Погода в Верхнем Жириме

Россия / Республика Бурятия     51°19′09″N   107°13′16″E
темп.,
°C
ветер,
м/с
пор.,
м/с
влажн.,
%
обл.,
%
осадки,
мм/ч
давл.,
гПа
погр.,
м
23 сентября, чт
чт2323:00+5з1276100 0.1 101791
02:00+5сз3786100 0.5 1019548
05:00+4сз369499 0.1 1021503
08:00+5зюз248323 0.1 1022442
11:00+8юз336120 0.0 1021986
14:00+11юз334746 0.0 10201578
17:00+11ю334731 0.0 10191446
20:00+7ююв22595 0.0 102113
24 сентября, пт
пт2423:00+4вюв22795 0.0 102213
02:00+3вюв2281100 0.0 102213
05:00+3вюв227990 0.0 102114
08:00+5в2369100 0.0 1020126
11:00+9вюв3555100 0.1 1017597
14:00+12вюв445199 0.1 1015681
17:00+12вюв225593 0.0 1015592
20:00+7ссв2276100 0.0 101711
25 сентября, сб
сб2523:00+5с228213 0.0 101920
02:00+4ссв338790 0.0 102054
05:00+3с4888100 0.0 1020205
08:00+5с51392100 0.0 1019519
11:00+6с61387100 0.1 1017663
14:00+5с51289100 0.1 1016784
17:00+2ссз41298100 5.9 1016493
20:00+2ссз3997100 6.5 1017417
26 сентября, вс
вс2623:00+3сз4996100 0.1 1015570
02:00+2сз51196100 0.1 1014548
05:00+1сз61496100 0.6 1014537
08:00+2сз61296100 0.8 1015669
11:00+2зсз71294100 0.4 1015836
14:00+4сз6974100 0.5 10151089
17:00+4сз477672 0.1 1016891
20:00+1зюз118693 0.1 101719
27 сентября, пн
пн2723:00+1юз11906 0.0 101510
02:000юз119823 0.0 101510
05:00−1ююз1110065 0.0 101410
08:00+1ю129597 0.0 1014196
11:00+5зсз017193 0.0 1012509
14:00+8сз2249100 0.0 10091267
17:00+6сз4562100 0.0 1010786
20:00+2ссз3597100 0.8 1014226